This is the latest recevied weather packets stored in our database for station/object IR3AS. If no packets are shown the sender has not sent any weather packets the latest 1 day(s).
| Time | Temp. | Humidity | Pressure | Rain* | Wind** | Luminosity | Snow |
|---|---|---|---|---|---|---|---|
| 1777989051 | 3.33° C | 93% | 852 hPa | 0 mm | 1.79 m/s, 292° | - | - |
| 1777988752 | 2.78° C | 93% | 851.4 hPa | 0 mm | 4.47 m/s, 315° | - | - |
| 1777988451 | 2.78° C | 93% | 850.9 hPa | 0 mm | 3.58 m/s, 315° | - | - |
| 1777988151 | 2.78° C | 93% | 851.4 hPa | 0 mm | 2.68 m/s, 315° | - | - |
| 1777987851 | 2.78° C | 93% | 851.1 hPa | 0 mm | 2.68 m/s, 315° | - | - |
| 1777987551 | 2.78° C | 93% | 850.8 hPa | 0 mm | 4.02 m/s, 315° | - | - |
| 1777987251 | 2.78° C | 93% | 849.5 hPa | 0 mm | 3.58 m/s, 315° | - | - |
| 1777986952 | 2.78° C | 93% | 849.7 hPa | 0 mm | 1.34 m/s, 315° | - | - |
| 1777986651 | 2.78° C | 93% | 849.9 hPa | 0 mm | 0.45 m/s, 315° | - | - |
| 1777986351 | 2.78° C | 93% | 850 hPa | 0 mm | 0 m/s | - | - |
| 1777986051 | 2.78° C | 93% | 850 hPa | 0 mm | 2.68 m/s, 315° | - | - |
| 1777985751 | 2.78° C | 93% | 850.2 hPa | 0 mm | 1.34 m/s, 315° | - | - |
| 1777985451 | 2.78° C | 93% | 850.3 hPa | 0 mm | 2.68 m/s, 315° | - | - |
| 1777985151 | 2.22° C | 92% | 851.1 hPa | 0 mm | 2.24 m/s, 315° | - | - |
| 1777984852 | 2.22° C | 92% | 851.8 hPa | 0 mm | 3.13 m/s, 315° | - | - |
| 1777984551 | 2.22° C | 92% | 851.7 hPa | 0 mm | 2.68 m/s, 315° | - | - |
| 1777984251 | 2.22° C | 92% | 851.2 hPa | 0 mm | 0.89 m/s, 315° | - | - |
| 1777983951 | 1.67° C | 92% | 851.2 hPa | 0 mm | 2.24 m/s, 292° | - | - |
| 1777983651 | 1.67° C | 92% | 852 hPa | 0 mm | 1.34 m/s, 315° | - | - |
| 1777983352 | 1.67° C | 92% | 852.2 hPa | 0 mm | 1.34 m/s, 292° | - | - |
| 1777983051 | 1.67° C | 92% | 852.6 hPa | 0 mm | 0.89 m/s, 292° | - | - |
| 1777982751 | 1.67° C | 92% | 852.3 hPa | 0 mm | 1.34 m/s, 292° | - | - |
| 1777982451 | 1.67° C | 92% | 853.6 hPa | 0 mm | 1.79 m/s, 292° | - | - |
| 1777982152 | 1.67° C | 92% | 853.2 hPa | 0 mm | 1.34 m/s, 315° | - | - |
| 1777981851 | 1.67° C | 92% | 853.8 hPa | 0 mm | 1.79 m/s, 292° | - | - |
* Rain latest hour (hover to see other rain measurements)
** Current wind speed in m/s (hover to see current wind gust speed)